Starlink 32657

operational
NORAD ID: 62475 Int'l Des: 2024-254 Owner: SPXS Country: US Constellation: starlink
LEOCIRCULAR

Über Starlink 32657

Beschreibung wird geladen...

Live-Position

3D-Globus wird geladen...

Nächste Überflüge

Höhenverlauf

Altitude vs Time

uPlot chart will show altitude changes over time

Zweizeiliger Elementsatz

1 62475U 24254P 25300.75082035 .00041840 00000-0 15193-2 0 9999
2 62475 43.0039 50.4391 0001687 270.2557 89.8101 15.27623293 47139
Epoch: 27. Okt. 2025 • Age: 21 hours

Aktueller Status

Höhe 483.7 km
Geschwindigkeit 7.63 km/s
Subsatellitenpunkt 28.35°N, 175.63°W
Startdatum 31. Dez. 2024
Alter 0.8 years
Typ internet

Technische Details

Klassifizierung Payload
Masse 730.00 kg
Trockenmasse 700.00 kg
Gesamtmasse 730.00 kg
Länge 0.30 m
Durchmesser 4.10 m
Spannweite 29.00 m
Form Box + pan
Hersteller SPXS
Bus-Typ Starlink V2M
Phasenstatus In Orbit
Besitzer/Staat SPXS/US

Große Konstellationen

Loading constellations...